Flag for U.S.A. Weather past 2 weeks in Aspen, Colorado, U.S.A.

Now
67 °F

Sunny.


Feels Like: 67 °F
Forecast: 36 / 67 °F
Wind: 12 mph from Northwest

Location: Aspen-Pitkin County Airport

Current Time: Oct 24, 2014 at 3:21:05 PM

Latest Report: Oct 24, 2014 at 2:53 PM


Visibility: 10 mi

Pressure: 30.09 "Hg

Humidity: 20%

Dew point: 25 °F

Location of AspenLocation

Historic Weather in Aspen — Graph

°F

Aspen temperature yesterday

Maximum temperature yesterday: 63 °F (at 3:53 PM)
Minimum temperature yesterday: 32 °F (at 6:53 AM)
Average temperature yesterday: 45 °F

Past Weeks' High & Low Weather Summary

 TemperatureHumidityPressure
High71 °F (Oct 15, 3:53 PM)96% (Oct 10, 12:53 AM)30.36 "Hg (Oct 10, 12:53 AM)
Low26 °F (Oct 14, 4:53 AM)14% (Oct 15, 2:53 PM)29.60 "Hg (Oct 12, 5:53 AM)
Average46 °F62%30.04 "Hg
* Reported Oct 9 1:53 PM — Oct 24 1:53 PM, Aspen, Weather by CustomWeather, © 2014

Note: Actual official high and low records may vary slightly from our data, if they occured in-between our weather recording intervals... More about our weather records

Advertising

Aspen weather history for previous 24 hours

 ConditionsComfort  
Time TempWeatherWind HumidityBarometerVisibility
1:53 PM
Oct 24
67 °FSunny.9 mph19%30.10 "Hg10 mi
12:53 PM65 °FSunny.3 mph19%30.12 "Hg10 mi
11:53 AM61 °FSunny.6 mph25%30.16 "Hg10 mi
10:53 AM56 °FSunny.3 mph29%30.20 "Hg10 mi
9:53 AM49 °FSunny.No wind39%30.24 "Hg10 mi
8:53 AM41 °FSunny.No wind53%30.27 "Hg10 mi
7:53 AM33 °FClear.5 mph66%30.25 "Hg10 mi
6:53 AM34 °FClear.7 mph67%30.24 "Hg10 mi
5:53 AM34 °FClear.No wind67%30.20 "Hg10 mi
4:53 AM36 °FClear.7 mph62%30.15 "Hg10 mi
3:53 AM33 °FClear.7 mph72%30.14 "Hg10 mi
2:53 AM35 °FClear.5 mph67%30.14 "Hg10 mi
1:53 AM37 °FClear.7 mph65%30.12 "Hg10 mi
12:53 AM38 °FClear.8 mph65%30.14 "Hg10 mi
11:53 PM
Oct 23
38 °FClear.6 mph68%30.13 "Hg10 mi
10:53 PM39 °FClear.6 mph67%30.16 "Hg10 mi
9:53 PM41 °FClear.9 mph65%30.16 "Hg10 mi
8:53 PM43 °FClear.8 mph62%30.18 "Hg10 mi
7:53 PM48 °FClear.7 mph54%30.19 "Hg10 mi
6:53 PM47 °FSunny.9 mph61%30.18 "Hg10 mi
5:53 PM51 °FSunny.No wind54%30.13 "Hg10 mi
4:53 PM58 °FSunny.3 mph41%30.08 "Hg10 mi
3:53 PM63 °FSunny.8 mph33%30.06 "Hg10 mi
Weather by CustomWeather, © 2014

See weather overviewHow to use our weather pages